Regional Weather Roundup
Issued by NWS

Home | Current Version | Previous Version | Text Only | Print | Product List | Glossary Off
Versions: 1 2 3 4 5 6 7 8 9 10 11 12 13 14 15 16 17 18 19 20 21 22 23 24 25 26 27 28 29 30 31 32 33 34 35 36 37 38 39 40 41 42 43 44 45 46 47 48 49 50

000
ASUS43 KIND 242159
RWRIN

WEATHER ROUNDUP FOR INDIANA
NATIONAL WEATHER SERVICE INDIANAPOLIS IN
600 PM EDT SUN MAY 24 2015

NOTE: "FAIR" INDICATES FEW OR NO CLOUDS BELOW 12,000 FEET WITH NO
SIGNIFICANT WEATHER AND/OR OBSTRUCTIONS TO VISIBILITY.

* - STATION DOES NOT REPORT WEATHER SUCH AS PRECIPITATION OR FOG.

+ - STATION NOT QUALITY CONTROLLED BY THE NATIONAL WEATHER SERVICE.
    USE DATA WITH CAUTION...ESPECIALLY DEWPOINT AND RELATIVE
    HUMIDITY OBSERVATIONS.

INZ001>003-010>013-019-020-242300-
NORTHWEST INDIANA

CITY           SKY/WX    TMP DP  RH WIND       PRES   REMARKS
GARY /AIRPORT/ LGT RAIN  73  66  78 SW5       29.99S
MONTICELLO +   MOSUNNY   82  60  47 S13G22    30.02F
RENSSELAER +   MOSUNNY   82  59  44 S23G31    30.00F

$$

LMZ046-743>745-242300-
SOUTHERN LAKE MICHIGAN

STATION/POSITION TIME  TEMP    WIND        PRES    WAVE
                       AIR SEA DIR/SP/G            HT
                 (UTC) (F)     (DEG/KT/KT) (MB)    (FT)
BURNS HARBOR     2100   78     220/ 12/ 17 1015.9F
MICHIGAN CITY    2100   80     120/ 14/ 16   N/A
5NW MICH CITY    2100   73 54  170/ 14/ 19   N/A     1

$$

INZ004-005-014>016-021>024-242300-
NORTH CENTRAL INDIANA

CITY           SKY/WX    TMP DP  RH WIND       PRES   REMARKS
GOSHEN         CLOUDY    79  57  46 SE10      30.05F
SOUTH BEND     PTSUNNY   83  54  36 SE14G25   30.02F
WARSAW +       MOSUNNY   81  55  41 S6        30.06F

$$

INZ006>009-017-018-025>027-242300-
NORTHEAST INDIANA

CITY           SKY/WX    TMP DP  RH WIND       PRES   REMARKS
ANGOLA *+      CLOUDY    81  57  44 S9        30.09F
FORT WAYNE     MOSUNNY   82  53  36 S17G26    30.09F

$$

INZ028-029-035-036-043>045-051>053-242300-
WEST CENTRAL INDIANA

CITY           SKY/WX    TMP DP  RH WIND       PRES   REMARKS
CRAWFORDSVL +  CLOUDY    81  51  34 SE21      30.05F
GREENCASTLE +  MOSUNNY   79  55  44 S17       30.06F
LAFAYETTE      MOSUNNY   82  59  45 S13G22    30.01F
TERRE HAUTE    MOSUNNY   82  61  48 SE17      30.04F

$$

INZ030>032-037>040-046>048-054>057-064-065-242300-
CENTRAL INDIANA

CITY           SKY/WX    TMP DP  RH WIND       PRES   REMARKS
COLUMBUS       MOSUNNY   82  48  30 S16G22    30.10F
INDIANAPOLIS   PTSUNNY   83  56  39 SE16      30.06F
-EAGLE CREEK   PTSUNNY   82  56  40 S15G23    30.06F
KOKOMO *+      PTSUNNY   82  55  39 S22G29    30.05F
MT COMFORT *+  SUNNY     84  30  14 S16G24    30.09F
SHELBYVILLE    SUNNY     86  54  33 S17G25    30.09F

$$

INZ033-034-041-042-049-050-058-059-242300-
EAST CENTRAL INDIANA

CITY           SKY/WX    TMP DP  RH WIND       PRES   REMARKS
MUNCIE         SUNNY     84  51  31 S14G22    30.09F

$$

INZ060-061-067>069-081>083-085>088-242300-
SOUTHWEST INDIANA

CITY           SKY/WX    TMP DP  RH WIND       PRES   REMARKS
EVANSVILLE     PTSUNNY   83  62  49 SE12G26   30.04F
HUNTINGBURG *+ MOSUNNY   82  61  47 SE13G21   30.07F

$$

INZ062-063-066-070>080-084-089>092-242300-
SOUTH CENTRAL AND SOUTHEAST INDIANA

CITY           SKY/WX    TMP DP  RH WIND       PRES   REMARKS
BLOOMINGTON    PTSUNNY   83  61  47 S12G20    30.07F
MADISON *+     SUNNY     82  46  28 S12       30.14F

$$



USA.gov is the U.S. government's official web portal to all federal, state and local government web resources and services.